This is the latest recevied weather packets stored in our database for station/object N1KM-15. If no packets are shown the sender has not sent any weather packets the latest 10 day(s).
| Time | Temp. | Humidity | Pressure | Rain* | Wind** | Luminosity | Snow |
|---|---|---|---|---|---|---|---|
| 1777589100 | 10° C | 92% | 1004.4 hPa | 4.57 mm | - | - | - |
| 1777588200 | 10° C | 92% | 1004.2 hPa | 4.57 mm | - | - | - |
| 1777587300 | 10° C | 92% | 1004.1 hPa | 4.57 mm | - | - | - |
| 1777586400 | 10° C | 92% | 1004.1 hPa | 4.57 mm | - | - | - |
| 1777585500 | 10.56° C | 91% | 1004.1 hPa | 4.57 mm | - | - | - |
| 1777584600 | 10.56° C | 90% | 1004.1 hPa | 4.57 mm | - | - | - |
| 1777583700 | 11.11° C | 89% | 1003.7 hPa | 4.57 mm | - | - | - |
| 1777582800 | 11.11° C | 89% | 1003.6 hPa | 4.57 mm | - | - | - |
| 1777581900 | 11.11° C | 89% | 1003.7 hPa | 4.57 mm | - | - | - |
| 1777581000 | 11.11° C | 87% | 1003.8 hPa | 4.57 mm | - | - | - |
| 1777580100 | 11.11° C | 86% | 1003.6 hPa | 4.57 mm | - | - | - |
| 1777579200 | 11.11° C | 86% | 1003.6 hPa | 4.57 mm | - | - | - |
| 1777578300 | 11.11° C | 85% | 1003.9 hPa | 4.57 mm | - | - | - |
| 1777577400 | 11.11° C | 86% | 1003.7 hPa | 4.57 mm | - | - | - |
| 1777576500 | 11.67° C | 86% | 1003.9 hPa | 4.57 mm | - | - | - |
| 1777575600 | 11.67° C | 84% | 1004.1 hPa | 4.57 mm | - | - | - |
| 1777574700 | 12.22° C | 83% | 1003.7 hPa | 4.57 mm | - | - | - |
| 1777573800 | 11.67° C | 86% | 1003.7 hPa | 4.57 mm | - | - | - |
| 1777572900 | 11.67° C | 86% | 1004.2 hPa | 4.57 mm | - | - | - |
| 1777572000 | 11.67° C | 87% | 1004.1 hPa | 4.83 mm | - | - | - |
| 1777571100 | 11.11° C | 88% | 1004.2 hPa | 4.83 mm | - | - | - |
| 1777570200 | 11.67° C | 90% | 1004.3 hPa | 4.83 mm | - | - | - |
| 1777569300 | 10.56° C | 92% | 1004.4 hPa | 4.83 mm | - | - | - |
| 1777568400 | 10.56° C | 93% | 1004.9 hPa | 5.59 mm | - | - | - |
| 1777567500 | 10.56° C | 93% | 1005 hPa | 5.59 mm | - | - | - |
* Rain since midnight (hover to see other rain measurements)
** Current wind speed in m/s (hover to see current wind gust speed)